Wind_Speed
17 18 17 18 19 20 19 19 19 20 21 20 21 21 20 20 20 19 19 19 20 19 19 19 18 18 17 18 18 17 17 17 17 17 18 18 18 17 16 16 16 16 17 18
18 18 18 19 19 20 20 21 21 22 22 22 22 22 21 22 21 20 19 20 21 20 19 19 20 19 19 18 19 18 19 19 18 18 19 19 18 17 17 17 17 17 18 19
19 20 20 20 20 20 21 21 22 22 23 23 23 23 22 22 21 21 21 20 20 20 20 20 20 20 20 20 20 20 19 19 19 19 19 19 18 18 18 18 18 18 18 19
20 21 21 21 21 21 21 22 22 22 22 22 22 21 21 21 21 21 21 20 20 21 21 21 21 21 21 21 21 21 20 20 19 19 19 19 19 18 18 18 18 18 18 18
21 21 21 21 21 21 22 22 22 22 22 22 22 21 20 20 20 20 20 21 21 21 21 22 22 22 22 21 21 21 20 19 19 20 20 20 20 19 18 18 18 18 18 18
23 22 22 21 22 22 22 21 22 22 22 22 21 21 20 19 19 19 20 21 21 22 22 22 23 22 21 21 21 21 20 20 20 21 20 20 20 19 18 18 18 18 18 19
22 22 22 22 22 22 22 21 20 20 21 21 21 21 20 19 19 20 20 21 22 22 22 22 22 21 20 20 21 21 21 21 21 21 21 21 20 19 18 18 19 19 19 19
22 22 23 22 22 22 22 22 20 20 19 20 21 21 19 19 19 20 20 21 20 20 20 20 21 20 20 20 21 21 21 21 21 21 21 21 20 19 18 19 20 20 20 19
22 22 23 23 22 22 23 23 22 21 21 20 21 22 21 19 19 20 20 20 20 19 20 20 20 20 20 21 21 22 22 22 21 21 20 19 19 18 18 19 20 20 19 19
23 23 23 23 23 23 23 23 22 22 21 20 20 20 20 19 20 20 20 20 20 20 20 20 20 20 20 21 21 22 22 22 21 21 20 19 18 18 18 18 19 19 19 19
23 23 23 23 23 22 23 23 23 23 23 21 19 21 21 20 19 20 20 20 20 19 19 20 20 20 20 20 21 20 20 20 20 20 19 19 20 19 18 18 19 18 19 20
24 23 23 23 24 24 24 24 24 23 23 23 21 21 22 21 20 21 21 21 21 20 20 19 19 20 20 20 20 20 20 20 20 20 19 19 20 19 19 19 19 19 19 19
24 24 24 23 24 25 25 25 25 24 24 24 22 23 24 22 21 21 22 21 21 21 21 20 20 20 20 19 19 20 20 20 20 21 20 20 19 20 19 20 19 19 19 19
25 25 24 24 23 25 26 25 25 25 25 25 25 24 24 23 22 22 22 22 22 22 21 21 20 20 20 20 20 20 20 20 20 20 20 20 20 20 20 19 19 19 20 19
25 25 25 25 25 25 26 26 26 26 26 26 25 25 25 25 24 23 23 23 23 22 22 21 21 20 20 20 20 20 21 21 20 20 20 20 19 19 19 19 19 19 20 19
26 26 26 26 26 26 27 27 27 27 26 26 26 26 26 25 24 23 23 23 23 23 22 21 20 20 20 20 19 20 20 21 20 20 19 19 19 19 19 19 20 20 20 20
25 25 25 25 26 27 28 27 27 27 27 27 26 26 25 25 24 23 23 23 22 23 23 22 21 21 21 20 20 20 21 22 21 20 19 19 20 20 20 21 21 20 20 19
23 25 25 25 26 27 26 26 26 27 27 26 26 24 23 24 24 24 23 23 23 23 22 22 22 22 22 21 21 21 21 22 21 20 20 20 20 20 20 20 21 21 20 20
21 22 23 23 25 26 26 24 24 25 26 25 25 24 24 24 24 25 24 23 23 23 23 23 22 22 22 22 21 21 21 21 21 21 21 20 20 20 20 20 21 21 21 21
20 21 22 22 23 25 26 24 23 24 26 26 25 25 24 24 24 24 23 23 23 22 23 23 23 22 22 22 21 21 21 21 21 21 20 21 20 20 19 20 20 22 22 22
19 20 21 21 22 23 25 23 22 23 24 24 24 24 24 24 24 24 23 23 23 23 22 23 23 23 23 22 21 22 22 21 21 20 20 20 21 20 20 20 20 20 21 21
18 19 20 21 21 22 22 22 24 24 24 24 24 23 23 23 23 23 23 23 23 23 22 22 23 23 22 21 21 21 22 21 21 21 21 21 20 21 21 21 21 21 21 21
17 18 18 19 20 21 21 22 23 23 24 24 24 23 23 23 23 22 23 23 22 22 22 22 23 23 23 22 22 22 21 21 21 21 21 21 21 21 21 21 21 22 22 22
17 17 18 18 20 20 21 21 21 22 22 22 22 22 22 22 22 22 21 21 21 22 22 22 22 23 23 23 23 23 22 22 21 21 21 21 21 21 22 22 23 23 24 25
15 16 17 18 18 18 19 20 20 20 21 21 21 21 20 20 21 21 20 20 21 22 22 22 23 22 23 23 24 24 23 23 22 22 22 22 22 22 23 23 24 24 25 25
15 16 16 16 17 17 17 18 19 19 18 19 20 20 19 20 20 20 20 20 22 22 23 23 23 23 22 23 23 23 23 23 23 23 23 23 23 24 24 24 25 25 26 26
Wind_Direction
249 249 250 251 250 250 252 253 255 257 262 264 263 263 265 268 270 272 271 269 270 268 267 270 274 278 282 285 286 287 287 286 286 285 283 284 284 277 271 268 268 262 256 255
248 249 249 250 251 253 255 256 257 260 262 263 264 266 267 268 270 270 269 269 268 267 266 269 273 277 280 283 285 286 286 286 286 284 283 282 280 276 273 269 266 263 258 259
249 250 250 250 251 253 256 257 258 259 262 263 267 270 269 268 268 268 269 269 270 268 267 270 272 274 277 280 280 280 283 285 285 284 283 280 277 276 273 270 267 262 260 257
250 252 251 250 251 254 257 258 258 259 261 264 267 268 268 268 268 267 268 268 270 271 271 271 273 274 275 277 277 276 278 282 285 285 283 279 277 277 273 268 267 265 261 259
251 252 251 250 252 255 255 257 259 259 260 261 264 265 266 269 269 267 266 268 271 271 273 274 276 275 275 275 275 275 277 279 282 285 283 278 277 274 272 269 267 263 261 257
252 252 252 252 253 254 258 260 261 261 262 262 262 263 264 267 269 268 267 269 270 271 272 274 276 275 274 273 275 275 276 277 279 282 281 280 277 274 271 268 266 262 260 259
252 252 252 252 253 255 258 261 262 262 261 264 262 262 264 267 270 270 270 270 270 271 271 271 271 272 273 274 274 275 275 276 278 279 279 278 276 273 268 265 264 261 261 259
251 254 255 253 252 256 258 258 257 257 258 262 264 263 266 268 269 270 270 271 272 272 272 270 269 270 273 275 275 274 275 276 276 276 277 276 273 269 266 266 264 262 260 260
250 252 256 255 253 255 257 257 256 257 260 261 263 264 266 266 267 267 269 270 273 275 274 272 272 271 272 273 274 272 273 274 275 274 274 270 267 266 266 266 263 261 258 258
250 253 256 256 255 253 253 255 256 256 258 261 265 267 265 265 267 267 268 272 275 275 274 274 272 273 273 273 273 271 271 272 272 271 269 266 267 270 268 266 262 260 258 256
250 252 255 255 253 253 254 254 254 255 255 256 262 266 265 266 267 269 271 273 274 276 275 272 271 271 271 272 273 270 269 271 271 272 271 269 270 271 269 267 262 260 260 257
249 250 251 253 253 252 252 252 253 255 256 256 258 266 268 270 268 268 270 272 273 273 273 273 271 270 271 274 273 270 271 272 274 272 269 270 268 268 269 269 267 266 261 261
249 249 250 253 255 254 251 251 252 253 254 257 258 265 270 270 271 271 269 270 270 272 271 271 273 272 272 273 273 271 271 272 273 271 268 268 268 266 268 270 266 264 263 261
252 250 249 249 254 255 254 254 253 253 254 258 258 261 267 270 272 272 270 269 269 270 271 272 272 272 272 272 270 270 269 271 272 270 268 269 267 265 265 268 266 264 262 261
251 252 252 250 253 255 255 256 256 256 255 256 259 260 264 269 271 271 270 270 270 269 271 272 270 270 271 271 270 269 269 271 271 269 268 266 263 262 263 266 265 262 261 259
253 251 252 252 252 253 255 256 257 257 257 258 260 262 263 266 268 269 269 270 271 270 271 269 269 269 268 270 270 269 270 271 270 268 267 264 262 262 263 264 264 263 260 259
255 255 255 255 254 254 253 254 256 257 257 259 260 262 263 263 265 267 268 270 272 272 270 268 269 270 269 269 269 267 269 271 269 267 266 265 263 262 263 262 261 261 259 258
258 256 257 257 254 254 254 255 256 256 256 257 259 260 260 262 265 267 268 270 270 271 269 269 269 270 271 270 272 271 270 269 266 264 264 264 264 263 263 262 261 261 259 259
259 255 256 255 255 255 256 257 256 256 255 256 258 257 258 262 264 267 268 270 270 269 267 267 269 270 271 271 272 271 269 268 266 266 267 264 264 264 262 261 259 259 260 260
257 255 255 255 255 256 257 258 257 256 257 257 258 257 258 262 263 265 267 270 270 266 265 265 267 270 271 272 271 270 268 267 268 269 269 266 264 265 263 261 261 260 261 260
259 258 257 256 257 258 257 257 257 255 257 259 258 258 258 260 262 264 266 269 269 266 264 265 266 266 268 269 270 270 269 267 269 269 266 266 265 263 263 263 263 262 262 261
260 258 257 256 257 258 258 259 257 256 257 259 259 259 259 259 261 264 266 267 268 266 264 263 264 265 265 265 267 269 270 269 267 266 266 266 266 263 262 260 261 262 262 263
258 259 259 258 258 260 261 259 258 256 257 258 259 259 259 259 261 266 267 266 265 265 264 263 264 265 265 265 265 265 267 268 266 265 265 265 265 262 261 260 259 261 262 262
262 261 260 260 261 262 261 258 258 258 259 260 259 258 258 261 261 265 265 265 263 264 266 266 267 268 267 266 266 266 267 266 265 265 265 265 265 265 262 261 261 262 262 263
265 262 261 262 262 262 261 259 258 258 258 257 256 256 258 260 261 261 262 263 264 265 267 268 268 269 268 266 265 266 266 265 266 266 266 266 266 266 266 263 262 263 263 263
265 264 261 259 260 262 262 262 261 260 258 257 254 254 256 257 258 260 262 265 265 266 266 268 268 270 270 267 266 267 267 267 267 266 264 265 266 265 265 264 263 264 265 265
Height
5854 5856 5857 5859 5860 5861 5862 5863 5863 5864 5863 5863 5863 5864 5864 5863 5863 5863 5862 5862 5862 5863 5863 5862 5862 5861 5860 5859 5858 5857 5856 5855 5853 5852 5852 5851 5850 5849 5849 5848 5848 5848 5849 5850
5850 5851 5853 5853 5854 5855 5857 5858 5859 5859 5858 5858 5858 5858 5859 5858 5858 5857 5857 5857 5857 5857 5857 5857 5857 5856 5856 5855 5854 5853 5851 5850 5849 5848 5847 5846 5846 5845 5844 5844 5844 5844 5845 5845
5845 5847 5847 5848 5849 5851 5852 5853 5854 5854 5853 5853 5853 5854 5853 5853 5852 5852 5852 5852 5852 5852 5852 5852 5852 5852 5851 5850 5849 5848 5847 5846 5845 5844 5843 5842 5841 5841 5840 5840 5840 5840 5840 5840
5840 5841 5842 5843 5844 5845 5847 5847 5847 5847 5848 5849 5849 5849 5848 5847 5847 5847 5848 5847 5847 5847 5847 5847 5847 5846 5846 5845 5844 5843 5842 5841 5840 5839 5838 5837 5837 5836 5836 5835 5835 5835 5835 5836
5835 5836 5837 5838 5840 5840 5841 5841 5842 5842 5842 5843 5843 5844 5844 5843 5842 5843 5843 5843 5842 5842 5842 5841 5841 5841 5840 5840 5839 5838 5837 5836 5835 5834 5833 5833 5832 5831 5831 5831 5831 5831 5831 5831
5829 5830 5831 5833 5834 5834 5835 5836 5836 5836 5837 5838 5839 5839 5839 5838 5838 5838 5837 5837 5837 5837 5836 5836 5835 5835 5834 5834 5834 5833 5832 5831 5830 5829 5828 5828 5827 5826 5826 5826 5826 5826 5827 5827
5824 5825 5826 5827 5828 5829 5830 5832 5833 5833 5833 5833 5833 5833 5833 5833 5832 5832 5832 5832 5831 5831 5831 5830 5830 5829 5829 5829 5828 5827 5827 5826 5825 5824 5823 5822 5822 5821 5821 5821 5821 5821 5822 5823
5819 5820 5820 5821 5823 5824 5825 5827 5829 5829 5830 5829 5827 5827 5828 5827 5827 5826 5826 5826 5825 5825 5825 5825 5824 5824 5824 5823 5822 5822 5821 5820 5819 5818 5818 5817 5816 5816 5816 5816 5816 5816 5817 5817
5813 5815 5814 5815 5816 5818 5818 5820 5822 5823 5822 5823 5822 5822 5822 5821 5821 5821 5821 5820 5820 5820 5819 5819 5818 5818 5818 5817 5817 5816 5815 5814 5814 5813 5812 5811 5811 5811 5811 5811 5811 5811 5811 5812
5806 5808 5808 5809 5810 5811 5813 5814 5815 5816 5817 5818 5818 5817 5817 5816 5815 5815 5815 5815 5815 5814 5814 5813 5813 5812 5812 5811 5810 5809 5809 5808 5808 5807 5807 5806 5806 5806 5806 5806 5806 5806 5806 5807
5800 5802 5803 5803 5804 5805 5807 5808 5808 5810 5811 5812 5813 5814 5811 5811 5810 5810 5810 5809 5809 5809 5808 5807 5807 5807 5806 5805 5804 5803 5802 5802 5801 5801 5801 5801 5801 5801 5801 5801 5801 5801 5801 5801
5793 5795 5796 5797 5798 5798 5800 5801 5803 5804 5804 5805 5807 5809 5804 5805 5804 5804 5804 5804 5803 5803 5803 5802 5801 5801 5800 5799 5798 5797 5797 5796 5796 5796 5796 5796 5796 5796 5796 5796 5796 5796 5796 5795
5786 5788 5790 5791 5793 5792 5793 5794 5795 5797 5798 5799 5801 5803 5799 5799 5798 5798 5798 5797 5797 5797 5797 5796 5796 5795 5794 5793 5792 5791 5791 5790 5790 5790 5790 5790 5790 5791 5790 5790 5790 5791 5791 5791
5778 5780 5783 5785 5785 5784 5785 5787 5788 5790 5791 5792 5793 5794 5793 5793 5792 5792 5791 5791 5791 5791 5791 5790 5790 5789 5788 5787 5786 5785 5785 5785 5785 5784 5784 5784 5784 5785 5785 5785 5785 5785 5785 5786
5770 5772 5773 5775 5776 5777 5778 5779 5780 5782 5784 5785 5786 5787 5786 5786 5786 5785 5785 5785 5785 5784 5784 5784 5783 5783 5782 5782 5781 5780 5780 5779 5779 5779 5779 5779 5779 5779 5779 5779 5780 5780 5780 5780
5762 5764 5766 5767 5768 5769 5770 5772 5773 5775 5776 5777 5778 5779 5779 5779 5779 5779 5778 5778 5778 5778 5778 5777 5777 5777 5776 5776 5775 5774 5774 5774 5774 5773 5773 5773 5774 5774 5774 5774 5774 5774 5774 5774
5755 5757 5758 5759 5760 5761 5763 5765 5766 5767 5768 5770 5770 5772 5772 5772 5772 5772 5772 5772 5771 5771 5771 5771 5770 5770 5770 5770 5769 5768 5768 5768 5768 5768 5767 5768 5768 5768 5768 5768 5768 5768 5769 5769
5748 5749 5750 5752 5753 5754 5758 5757 5759 5759 5760 5762 5763 5764 5765 5765 5765 5765 5765 5765 5765 5764 5764 5764 5764 5764 5764 5763 5763 5762 5762 5762 5761 5761 5762 5762 5762 5762 5762 5762 5762 5763 5763 5763
5741 5742 5743 5745 5745 5746 5749 5750 5751 5752 5753 5754 5755 5756 5757 5758 5758 5758 5758 5758 5758 5757 5757 5757 5757 5757 5757 5757 5756 5756 5755 5755 5755 5755 5755 5756 5756 5755 5755 5756 5756 5756 5757 5757
5735 5735 5737 5737 5738 5740 5741 5742 5743 5745 5745 5747 5748 5749 5750 5751 5751 5752 5751 5751 5751 5750 5750 5750 5751 5751 5750 5750 5750 5749 5749 5749 5749 5748 5749 5749 5749 5749 5749 5750 5750 5750 5751 5751
5728 5729 5729 5730 5731 5732 5733 5734 5736 5738 5739 5739 5740 5741 5743 5743 5744 5745 5744 5744 5744 5743 5743 5743 5743 5743 5744 5743 5743 5743 5742 5742 5742 5742 5742 5742 5742 5743 5743 5743 5744 5744 5744 5744
5722 5723 5723 5724 5724 5727 5726 5727 5729 5730 5731 5731 5733 5734 5735 5736 5736 5736 5736 5737 5736 5736 5736 5736 5736 5736 5737 5736 5736 5736 5736 5735 5735 5736 5736 5736 5736 5736 5736 5737 5737 5737 5738 5738
5716 5717 5717 5718 5719 5719 5719 5720 5720 5722 5723 5724 5725 5726 5728 5728 5729 5729 5729 5729 5729 5729 5729 5729 5729 5729 5729 5729 5729 5729 5729 5729 5729 5729 5729 5729 5729 5729 5729 5730 5730 5731 5731 5731
5711 5711 5711 5711 5712 5712 5712 5713 5714 5714 5716 5717 5718 5719 5720 5721 5722 5722 5722 5722 5722 5722 5722 5722 5722 5722 5722 5722 5722 5722 5722 5722 5722 5722 5722 5722 5722 5722 5722 5723 5723 5723 5724 5724
5705 5705 5705 5705 5706 5706 5706 5707 5707 5708 5709 5710 5711 5712 5713 5714 5715 5715 5715 5715 5715 5715 5715 5715 5715 5715 5714 5714 5714 5714 5715 5714 5715 5715 5715 5715 5715 5715 5715 5715 5715 5715 5716 5716
5700 5699 5699 5700 5700 5700 5701 5701 5701 5702 5703 5703 5704 5706 5706 5707 5708 5708 5709 5708 5708 5708 5708 5708 5708 5707 5707 5706 5707 5707 5707 5707 5707 5707 5707 5707 5707 5707 5707 5707 5707 5707 5707 5707